Location: Casteau
(50.5142°N, 4.0161°E)
Time: 03:14:07
(UTC+00:00)

Explorer 11/Cluster Stage 4 - Pass Details

Date: 07 August 2021
Orbit: 467 x 1257 km, 28.8° (Epoch: 18 September)

Event Time Altitude Azimuth Distance (km) Brightness Sun altitude
Rises 08:43:03 0° 234° (SW) 3,893 9.9 39.5°
Reaches altitude 10° 08:47:33 10° 209° (SSW) 3,074 9.7 40.1°
Maximum altitude 08:50:50 13° 184° (S) 2,908 9.9 40.6°
Drops below altitude 10° 08:54:13 10° 159° (SSE) 3,198 10.4 41.0°
Sets 08:59:06 0° 135° (SE) 4,192 11.1 41.7°
